Tracking 19847 objects as of 16-Sep-2019
HD Live streaming from Space Station
objects crossing your sky now

COSMOS 1275 DEB

Track COSMOS 1275 DEB now!
10-day predictions


NORAD ID: 17642
Int'l Code: 1981-053LQ
Perigee: 786.7 km
Apogee: 845.4 km
Inclination: 82.9 °
Period: 101.1 minutes
Semi major axis: 7187 km
RCS: 0.0092 m2 (small)
Launch date: June 4, 1981
Source: Commonwealth of Independent States (former USSR) (CIS)
Launch site: PLESETSK MISSILE AND SPACE COMPLEX (PKMTR)

Note: This is SATELLITE DEBRIS
aabbcc
Your satellite tracking list
Your tracking list is empty




NASA's NSSDC Master Catalog

Two Line Element Set (TLE):
1 17642U 81053LM  19258.68571618 +.00000470 +00000-0 +19212-3 0  9993
2 17642 082.8720 336.8145 0040840 087.5691 273.0167 14.24889076784162
Source of the keplerian elements: AFSPC